Time,TemperatureF,DewpointF,PressureIn,WindDirection,WindDirectionDegrees,WindSpeedMPH,WindSpeedGustMPH,Humidity,HourlyPrecipIn,Conditions,Clouds,dailyrainin,SoftwareType,DateUTC
2013-02-15 00:00:00,52.0,22.3,-100.00,SW,236,3.0,6.0,31,0.00,,,0.00,meteohub,2013-02-15 08:00:00,
2013-02-15 00:05:00,52.3,22.6,-100.00,WNW,283,5.0,6.0,31,0.00,,,0.00,meteohub,2013-02-15 08:05:00,
2013-02-15 00:10:00,52.9,22.3,-100.00,West,266,7.0,8.0,30,0.00,,,0.00,meteohub,2013-02-15 08:10:00,
2013-02-15 00:15:00,53.2,22.6,-100.00,WSW,258,5.0,9.0,30,0.00,,,0.00,meteohub,2013-02-15 08:15:00,
2013-02-15 00:20:00,53.4,22.8,-100.00,WSW,250,6.0,9.0,30,0.00,,,0.00,meteohub,2013-02-15 08:20:00,
2013-02-15 00:25:00,53.8,23.0,-100.00,WSW,252,6.0,8.0,30,0.00,,,0.00,meteohub,2013-02-15 08:25:00,
2013-02-15 00:30:00,54.0,23.2,-100.00,WSW,238,4.0,8.0,30,0.00,,,0.00,meteohub,2013-02-15 08:30:00,
2013-02-15 00:35:00,53.8,23.0,-100.00,WSW,247,6.0,9.0,30,0.00,,,0.00,meteohub,2013-02-15 08:35:00,
2013-02-15 00:40:00,53.8,22.3,-100.00,WSW,244,5.0,9.0,29,0.00,,,0.00,meteohub,2013-02-15 08:40:00,
2013-02-15 00:45:00,53.8,22.3,-100.00,WSW,244,3.0,8.0,29,0.00,,,0.00,meteohub,2013-02-15 08:45:00,
2013-02-15 00:50:00,53.8,22.3,-100.00,WSW,240,5.0,7.0,29,0.00,,,0.00,meteohub,2013-02-15 08:50:00,
2013-02-15 00:55:00,53.8,23.0,-100.00,SW,229,4.0,6.0,30,0.00,,,0.00,meteohub,2013-02-15 08:55:00,
2013-02-15 01:00:00,53.8,22.3,-100.00,SW,229,2.0,5.0,29,0.00,,,0.00,meteohub,2013-02-15 09:00:00,
2013-02-15 01:05:00,53.8,22.3,-100.00,SW,229,3.0,5.0,29,0.00,,,0.00,meteohub,2013-02-15 09:05:00,
2013-02-15 01:10:00,53.6,22.1,-100.00,SW,225,4.0,5.0,29,0.00,,,0.00,meteohub,2013-02-15 09:10:00,
2013-02-15 01:15:00,53.4,22.8,-100.00,SW,216,5.0,6.0,30,0.00,,,0.00,meteohub,2013-02-15 09:15:00,
2013-02-15 01:20:00,53.1,22.5,-100.00,SSW,207,3.0,7.0,30,0.00,,,0.00,meteohub,2013-02-15 09:20:00,
2013-02-15 01:25:00,52.9,22.3,-100.00,SSW,212,4.0,7.0,30,0.00,,,0.00,meteohub,2013-02-15 09:25:00,
2013-02-15 01:30:00,52.7,22.1,-100.00,SW,221,3.0,7.0,30,0.00,,,0.00,meteohub,2013-02-15 09:30:00,
2013-02-15 01:35:00,52.5,22.8,-100.00,SW,223,3.0,6.0,31,0.00,,,0.00,meteohub,2013-02-15 09:35:00,
2013-02-15 01:40:00,52.5,22.8,-100.00,WSW,239,3.0,6.0,31,0.00,,,0.00,meteohub,2013-02-15 09:40:00,
2013-02-15 01:45:00,52.3,22.6,-100.00,WSW,239,2.0,5.0,31,0.00,,,0.00,meteohub,2013-02-15 09:45:00,
2013-02-15 01:50:00,52.2,22.5,-100.00,WSW,238,3.0,5.0,31,0.00,,,0.00,meteohub,2013-02-15 09:50:00,
2013-02-15 01:55:00,52.0,22.3,-100.00,SW,234,3.0,5.0,31,0.00,,,0.00,meteohub,2013-02-15 09:55:00,
2013-02-15 02:00:00,51.6,21.9,-100.00,SW,218,4.0,6.0,31,0.00,,,0.00,meteohub,2013-02-15 10:00:00,
2013-02-15 02:05:00,51.3,23.2,-100.00,SSW,211,7.0,7.0,33,0.00,,,0.00,meteohub,2013-02-15 10:05:00,
2013-02-15 02:10:00,51.1,23.0,-100.00,SW,215,5.0,7.0,33,0.00,,,0.00,meteohub,2013-02-15 10:10:00,
2013-02-15 02:15:00,51.1,23.0,-100.00,SW,216,3.0,7.0,33,0.00,,,0.00,meteohub,2013-02-15 10:15:00,
2013-02-15 02:20:00,50.9,22.1,-100.00,SW,229,7.0,7.0,32,0.00,,,0.00,meteohub,2013-02-15 10:20:00,
2013-02-15 02:25:00,50.9,22.8,-100.00,WSW,237,6.0,7.0,33,0.00,,,0.00,meteohub,2013-02-15 10:25:00,
2013-02-15 02:30:00,50.7,22.6,-100.00,WSW,249,6.0,7.0,33,0.00,,,0.00,meteohub,2013-02-15 10:30:00,
2013-02-15 02:35:00,50.9,22.8,-100.00,WSW,257,5.0,7.0,33,0.00,,,0.00,meteohub,2013-02-15 10:35:00,
2013-02-15 02:40:00,50.7,22.6,-100.00,West,264,6.0,7.0,33,0.00,,,0.00,meteohub,2013-02-15 10:40:00,
2013-02-15 02:45:00,50.9,22.8,-100.00,West,265,6.0,7.0,33,0.00,,,0.00,meteohub,2013-02-15 10:45:00,
2013-02-15 02:50:00,50.9,23.5,-100.00,West,261,5.0,7.0,34,0.00,,,0.00,meteohub,2013-02-15 10:50:00,
2013-02-15 02:55:00,50.7,22.6,-100.00,WSW,258,6.0,7.0,33,0.00,,,0.00,meteohub,2013-02-15 10:55:00,
2013-02-15 03:00:00,50.7,22.6,-100.00,WSW,258,5.0,7.0,33,0.00,,,0.00,meteohub,2013-02-15 11:00:00,
2013-02-15 03:05:00,50.7,22.6,-100.00,WSW,241,4.0,6.0,33,0.00,,,0.00,meteohub,2013-02-15 11:05:00,
2013-02-15 03:10:00,50.7,22.6,-100.00,SW,236,5.0,6.0,33,0.00,,,0.00,meteohub,2013-02-15 11:10:00,
2013-02-15 03:15:00,50.7,23.4,-100.00,SW,223,5.0,6.0,34,0.00,,,0.00,meteohub,2013-02-15 11:15:00,
2013-02-15 03:20:00,50.7,23.4,-100.00,SW,223,4.0,6.0,34,0.00,,,0.00,meteohub,2013-02-15 11:20:00,
2013-02-15 03:25:00,50.7,23.4,-100.00,SW,225,4.0,6.0,34,0.00,,,0.00,meteohub,2013-02-15 11:25:00,
2013-02-15 03:30:00,50.5,23.2,-100.00,SW,221,4.0,5.0,34,0.00,,,0.00,meteohub,2013-02-15 11:30:00,
2013-02-15 03:35:00,50.5,23.2,-100.00,WSW,239,7.0,7.0,34,0.00,,,0.00,meteohub,2013-02-15 11:35:00,
2013-02-15 03:40:00,50.4,23.0,-100.00,WSW,239,4.0,8.0,34,0.00,,,0.00,meteohub,2013-02-15 11:40:00,
2013-02-15 03:45:00,50.4,23.0,-100.00,WSW,256,5.0,8.0,34,0.00,,,0.00,meteohub,2013-02-15 11:45:00,
2013-02-15 03:50:00,50.2,22.8,-100.00,WSW,254,5.0,8.0,34,0.00,,,0.00,meteohub,2013-02-15 11:50:00,
2013-02-15 03:55:00,50.2,22.8,-100.00,WSW,256,6.0,7.0,34,0.00,,,0.00,meteohub,2013-02-15 11:55:00,
2013-02-15 04:00:00,49.5,23.0,-100.00,WNW,291,4.0,9.0,35,0.00,,,0.00,meteohub,2013-02-15 12:00:00,
2013-02-15 04:05:00,49.3,22.8,-100.00,West,269,4.0,9.0,35,0.00,,,0.00,meteohub,2013-02-15 12:05:00,
2013-02-15 04:10:00,49.3,22.8,-100.00,West,268,5.0,9.0,35,0.00,,,0.00,meteohub,2013-02-15 12:10:00,
2013-02-15 04:15:00,49.3,22.8,-100.00,West,264,4.0,7.0,35,0.00,,,0.00,meteohub,2013-02-15 12:15:00,
2013-02-15 04:20:00,49.3,22.8,-100.00,SW,232,5.0,6.0,35,0.00,,,0.00,meteohub,2013-02-15 12:20:00,
2013-02-15 04:25:00,49.3,22.8,-100.00,SW,234,4.0,6.0,35,0.00,,,0.00,meteohub,2013-02-15 12:25:00,
2013-02-15 04:30:00,49.1,22.6,-100.00,SW,234,4.0,6.0,35,0.00,,,0.00,meteohub,2013-02-15 12:30:00,
2013-02-15 04:36:00,48.9,22.5,-100.00,SW,234,4.0,6.0,35,0.00,,,0.00,meteohub,2013-02-15 12:36:00,
2013-02-15 04:40:00,48.7,22.3,-100.00,SW,236,4.0,5.0,35,0.00,,,0.00,meteohub,2013-02-15 12:40:00,
2013-02-15 04:45:00,48.7,22.3,-100.00,SW,236,3.0,6.0,35,0.00,,,0.00,meteohub,2013-02-15 12:45:00,
2013-02-15 04:51:00,48.6,22.1,-100.00,SW,236,3.0,6.0,35,0.00,,,0.00,meteohub,2013-02-15 12:51:00,
2013-02-15 04:55:00,48.4,22.6,-100.00,SW,236,5.0,5.0,36,0.00,,,0.00,meteohub,2013-02-15 12:55:00,
2013-02-15 05:01:00,48.0,22.3,-100.00,SW,236,3.0,5.0,36,0.00,,,0.00,meteohub,2013-02-15 13:01:00,
2013-02-15 05:06:00,47.8,22.8,-100.00,SSW,205,6.0,7.0,37,0.00,,,0.00,meteohub,2013-02-15 13:06:00,
2013-02-15 05:11:00,47.7,23.4,-100.00,SSW,213,5.0,7.0,38,0.00,,,0.00,meteohub,2013-02-15 13:11:00,
2013-02-15 05:16:00,47.7,22.6,-100.00,SW,215,3.0,7.0,37,0.00,,,0.00,meteohub,2013-02-15 13:16:00,
2013-02-15 05:21:00,47.8,22.8,-100.00,SSW,198,7.0,7.0,37,0.00,,,0.00,meteohub,2013-02-15 13:21:00,
2013-02-15 05:26:00,48.0,23.0,-100.00,SSW,198,6.0,7.0,37,0.00,,,0.00,meteohub,2013-02-15 13:26:00,
2013-02-15 05:31:00,48.2,23.7,-100.00,SSW,208,7.0,8.0,38,0.00,,,0.00,meteohub,2013-02-15 13:31:00,
2013-02-15 05:36:00,48.6,23.5,-100.00,SSW,212,5.0,8.0,37,0.00,,,0.00,meteohub,2013-02-15 13:36:00,
2013-02-15 05:41:00,48.6,22.8,-100.00,SSW,213,2.0,8.0,36,0.00,,,0.00,meteohub,2013-02-15 13:41:00,
2013-02-15 05:46:00,48.4,22.6,-100.00,SSW,210,3.0,7.0,36,0.00,,,0.00,meteohub,2013-02-15 13:46:00,
2013-02-15 05:51:00,48.4,23.4,-100.00,SSW,210,7.0,7.0,37,0.00,,,0.00,meteohub,2013-02-15 13:51:00,
2013-02-15 05:56:00,48.4,23.4,-100.00,SSW,206,5.0,7.0,37,0.00,,,0.00,meteohub,2013-02-15 13:56:00,
2013-02-15 06:01:00,48.4,23.4,-100.00,SSW,207,4.0,7.0,37,0.00,,,0.00,meteohub,2013-02-15 14:01:00,
2013-02-15 06:06:00,48.0,23.0,-100.00,SW,221,5.0,7.0,37,0.00,,,0.00,meteohub,2013-02-15 14:06:00,
2013-02-15 06:11:00,48.0,23.0,-100.00,SW,231,6.0,9.0,37,0.00,,,0.00,meteohub,2013-02-15 14:11:00,
2013-02-15 06:16:00,47.8,22.8,-100.00,SW,235,4.0,10.0,37,0.00,,,0.00,meteohub,2013-02-15 14:16:00,
2013-02-15 06:21:00,47.7,22.6,-100.00,WSW,248,7.0,10.0,37,0.00,,,0.00,meteohub,2013-02-15 14:21:00,
2013-02-15 06:26:00,47.7,22.6,-100.00,WSW,246,7.0,10.0,37,0.00,,,0.00,meteohub,2013-02-15 14:26:00,
2013-02-15 06:31:00,47.7,23.4,-100.00,SW,222,4.0,10.0,38,0.00,,,0.00,meteohub,2013-02-15 14:31:00,
2013-02-15 06:36:00,47.8,22.8,-100.00,SW,223,4.0,10.0,37,0.00,,,0.00,meteohub,2013-02-15 14:36:00,
2013-02-15 06:41:00,47.8,22.8,-100.00,WSW,243,6.0,10.0,37,0.00,,,0.00,meteohub,2013-02-15 14:41:00,
2013-02-15 06:46:00,47.8,22.8,-100.00,WSW,240,3.0,9.0,37,0.00,,,0.00,meteohub,2013-02-15 14:46:00,
2013-02-15 06:51:00,47.8,22.8,-100.00,SW,234,10.0,10.0,37,0.00,,,0.00,meteohub,2013-02-15 14:51:00,
2013-02-15 06:56:00,47.8,22.8,-100.00,WSW,247,9.0,12.0,37,0.00,,,0.00,meteohub,2013-02-15 14:56:00,
2013-02-15 07:01:00,47.8,22.8,-100.00,West,261,6.0,12.0,37,0.00,,,0.00,meteohub,2013-02-15 15:01:00,
2013-02-15 07:06:00,48.0,23.0,-100.00,West,260,4.0,12.0,37,0.00,,,0.00,meteohub,2013-02-15 15:06:00,
2013-02-15 07:11:00,48.0,23.5,-100.00,WSW,242,7.0,9.0,38,0.00,,,0.00,meteohub,2013-02-15 15:11:00,
2013-02-15 07:16:00,48.2,23.2,-100.00,WSW,246,7.0,8.0,37,0.00,,,0.00,meteohub,2013-02-15 15:16:00,
2013-02-15 07:21:00,48.6,23.5,-100.00,WSW,254,7.0,9.0,37,0.00,,,0.00,meteohub,2013-02-15 15:21:00,
2013-02-15 07:26:00,48.9,23.2,-100.00,West,259,4.0,9.0,36,0.00,,,0.00,meteohub,2013-02-15 15:26:00,
2013-02-15 07:31:00,49.3,22.8,-100.00,West,261,6.0,9.0,35,0.00,,,0.00,meteohub,2013-02-15 15:31:00,
2013-02-15 07:36:00,49.5,23.5,-100.00,WSW,246,7.0,9.0,36,0.00,,,0.00,meteohub,2013-02-15 15:36:00,
2013-02-15 07:41:00,49.6,23.7,-100.00,SW,223,5.0,9.0,36,0.00,,,0.00,meteohub,2013-02-15 15:41:00,
2013-02-15 07:46:00,50.2,23.5,-100.00,SW,221,3.0,9.0,35,0.00,,,0.00,meteohub,2013-02-15 15:46:00,
2013-02-15 07:51:00,50.5,23.9,-100.00,SW,223,5.0,8.0,35,0.00,,,0.00,meteohub,2013-02-15 15:51:00,
2013-02-15 07:56:00,50.9,24.3,-100.00,SW,232,5.0,8.0,35,0.00,,,0.00,meteohub,2013-02-15 15:56:00,
2013-02-15 08:01:00,51.3,23.9,-100.00,SW,235,2.0,8.0,34,0.00,,,0.00,meteohub,2013-02-15 16:01:00,
2013-02-15 08:06:00,52.0,23.7,-100.00,WSW,246,5.0,8.0,33,0.00,,,0.00,meteohub,2013-02-15 16:06:00,
2013-02-15 08:11:00,52.5,24.3,-100.00,WSW,257,5.0,7.0,33,0.00,,,0.00,meteohub,2013-02-15 16:11:00,
2013-02-15 08:16:00,52.9,24.6,-100.00,WSW,251,7.0,8.0,33,0.00,,,0.00,meteohub,2013-02-15 16:16:00,
2013-02-15 08:21:00,53.1,24.8,-100.00,WSW,250,4.0,8.0,33,0.00,,,0.00,meteohub,2013-02-15 16:21:00,
2013-02-15 08:26:00,53.6,25.9,-100.00,WSW,250,4.0,8.0,34,0.00,,,0.00,meteohub,2013-02-15 16:26:00,
2013-02-15 08:31:00,54.1,26.4,-100.00,WSW,250,3.0,7.0,34,0.00,,,0.00,meteohub,2013-02-15 16:31:00,
2013-02-15 08:36:00,55.4,26.1,-100.00,WSW,250,0.0,7.0,32,0.00,,,0.00,meteohub,2013-02-15 16:36:00,
2013-02-15 08:41:00,55.8,24.8,-100.00,WSW,250,2.0,6.0,30,0.00,,,0.00,meteohub,2013-02-15 16:41:00,
2013-02-15 08:46:00,55.9,24.1,-100.00,WSW,250,2.0,4.0,29,0.00,,,0.00,meteohub,2013-02-15 16:46:00,
2013-02-15 08:51:00,56.3,24.4,-100.00,WSW,250,1.0,4.0,29,0.00,,,0.00,meteohub,2013-02-15 16:51:00,
2013-02-15 08:56:00,56.7,23.9,-100.00,WSW,250,1.0,4.0,28,0.00,,,0.00,meteohub,2013-02-15 16:56:00,
2013-02-15 09:01:00,56.8,24.1,-100.00,WSW,250,1.0,3.0,28,0.00,,,0.00,meteohub,2013-02-15 17:01:00,
2013-02-15 09:06:00,57.4,23.7,-100.00,WSW,250,1.0,2.0,27,0.00,,,0.00,meteohub,2013-02-15 17:06:00,
2013-02-15 09:11:00,57.7,23.9,-100.00,WSW,250,2.0,2.0,27,0.00,,,0.00,meteohub,2013-02-15 17:11:00,
2013-02-15 09:16:00,58.5,23.7,-100.00,WSW,250,0.0,3.0,26,0.00,,,0.00,meteohub,2013-02-15 17:16:00,
2013-02-15 09:21:00,59.2,23.4,-100.00,SE,137,3.0,5.0,25,0.00,,,0.00,meteohub,2013-02-15 17:21:00,
2013-02-15 09:26:00,59.9,23.9,-100.00,East,89,5.0,5.0,25,0.00,,,0.00,meteohub,2013-02-15 17:26:00,
2013-02-15 09:31:00,60.8,23.7,-100.00,East,85,5.0,10.0,24,0.00,,,0.00,meteohub,2013-02-15 17:31:00,
2013-02-15 09:36:00,61.9,22.6,-100.00,ESE,105,10.0,10.0,22,0.00,,,0.00,meteohub,2013-02-15 17:36:00,
2013-02-15 09:41:00,62.8,22.3,-100.00,East,92,7.0,13.0,21,0.00,,,0.00,meteohub,2013-02-15 17:41:00,
2013-02-15 09:46:00,63.1,22.6,-100.00,ESE,103,5.0,13.0,21,0.00,,,0.00,meteohub,2013-02-15 17:46:00,
2013-02-15 09:51:00,63.1,22.6,-100.00,East,100,10.0,13.0,21,0.00,,,0.00,meteohub,2013-02-15 17:51:00,
2013-02-15 09:56:00,63.5,21.7,-100.00,East,97,10.0,11.0,20,0.00,,,0.00,meteohub,2013-02-15 17:56:00,
2013-02-15 10:01:00,63.7,21.9,-100.00,East,86,6.0,11.0,20,0.00,,,0.00,meteohub,2013-02-15 18:01:00,
2013-02-15 10:06:00,64.0,22.1,-100.00,East,90,10.0,11.0,20,0.00,,,0.00,meteohub,2013-02-15 18:06:00,
2013-02-15 10:11:00,64.6,21.4,-100.00,ENE,72,10.0,15.0,19,0.00,,,0.00,meteohub,2013-02-15 18:11:00,
2013-02-15 10:16:00,64.6,21.4,-100.00,ESE,103,7.0,15.0,19,0.00,,,0.00,meteohub,2013-02-15 18:16:00,
2013-02-15 10:21:00,64.8,21.6,-100.00,East,89,11.0,15.0,19,0.00,,,0.00,meteohub,2013-02-15 18:21:00,
2013-02-15 10:26:00,64.9,21.7,-100.00,East,84,9.0,14.0,19,0.00,,,0.00,meteohub,2013-02-15 18:26:00,
2013-02-15 10:31:00,65.5,20.8,-100.00,ENE,71,11.0,15.0,18,0.00,,,0.00,meteohub,2013-02-15 18:31:00,
2013-02-15 10:36:00,65.7,21.0,-100.00,East,94,11.0,21.0,18,0.00,,,0.00,meteohub,2013-02-15 18:36:00,
2013-02-15 10:41:00,65.5,20.8,-100.00,ESE,102,15.0,21.0,18,0.00,,,0.00,meteohub,2013-02-15 18:41:00,
2013-02-15 10:46:00,65.3,20.7,-100.00,East,82,9.0,21.0,18,0.00,,,0.00,meteohub,2013-02-15 18:46:00,
2013-02-15 10:51:00,65.5,20.8,-100.00,East,90,15.0,18.0,18,0.00,,,0.00,meteohub,2013-02-15 18:51:00,
2013-02-15 10:56:00,65.8,21.2,-100.00,East,101,14.0,19.0,18,0.00,,,0.00,meteohub,2013-02-15 18:56:00,
2013-02-15 11:01:00,66.2,21.4,-100.00,East,101,16.0,19.0,18,0.00,,,0.00,meteohub,2013-02-15 19:01:00,
2013-02-15 11:06:00,66.6,20.3,-100.00,ESE,106,16.0,18.0,17,0.00,,,0.00,meteohub,2013-02-15 19:06:00,
2013-02-15 11:11:00,66.0,19.9,-100.00,East,93,10.0,19.0,17,0.00,,,0.00,meteohub,2013-02-15 19:11:00,
2013-02-15 11:16:00,66.2,20.1,-100.00,ENE,76,13.0,19.0,17,0.00,,,0.00,meteohub,2013-02-15 19:16:00,
2013-02-15 11:21:00,66.7,20.5,-100.00,ENE,63,10.0,19.0,17,0.00,,,0.00,meteohub,2013-02-15 19:21:00,
2013-02-15 11:26:00,67.1,20.8,-100.00,East,98,8.0,16.0,17,0.00,,,0.00,meteohub,2013-02-15 19:26:00,
2013-02-15 11:31:00,67.5,19.8,-100.00,ENE,76,15.0,17.0,16,0.00,,,0.00,meteohub,2013-02-15 19:31:00,
2013-02-15 11:36:00,67.5,19.8,-100.00,East,83,13.0,17.0,16,0.00,,,0.00,meteohub,2013-02-15 19:36:00,
2013-02-15 11:41:00,67.6,19.8,-100.00,East,91,13.0,17.0,16,0.00,,,0.00,meteohub,2013-02-15 19:41:00,
2013-02-15 11:46:00,67.6,19.8,-100.00,ENE,63,11.0,17.0,16,0.00,,,0.00,meteohub,2013-02-15 19:46:00,
2013-02-15 11:51:00,67.8,19.9,-100.00,ENE,70,10.0,17.0,16,0.00,,,0.00,meteohub,2013-02-15 19:51:00,
2013-02-15 11:56:00,68.2,20.3,-100.00,East,99,13.0,17.0,16,0.00,,,0.00,meteohub,2013-02-15 19:56:00,
2013-02-15 12:01:00,68.2,20.3,-100.00,East,84,9.0,18.0,16,0.00,,,0.00,meteohub,2013-02-15 20:01:00,
2013-02-15 12:06:00,68.2,20.3,-100.00,ENE,59,11.0,18.0,16,0.00,,,0.00,meteohub,2013-02-15 20:06:00,
2013-02-15 12:11:00,68.5,20.5,-100.00,East,84,14.0,18.0,16,0.00,,,0.00,meteohub,2013-02-15 20:11:00,
2013-02-15 12:16:00,68.7,19.2,-100.00,East,98,16.0,19.0,15,0.00,,,0.00,meteohub,2013-02-15 20:16:00,
2013-02-15 12:21:00,68.9,19.4,-100.00,East,82,16.0,19.0,15,0.00,,,0.00,meteohub,2013-02-15 20:21:00,
2013-02-15 12:26:00,68.7,20.7,-100.00,East,88,9.0,19.0,16,0.00,,,0.00,meteohub,2013-02-15 20:26:00,
2013-02-15 12:31:00,68.9,20.8,-100.00,East,84,11.0,18.0,16,0.00,,,0.00,meteohub,2013-02-15 20:31:00,
2013-02-15 12:36:00,69.3,19.6,-100.00,East,87,16.0,18.0,15,0.00,,,0.00,meteohub,2013-02-15 20:36:00,
2013-02-15 12:41:00,69.4,19.8,-100.00,East,88,8.0,18.0,15,0.00,,,0.00,meteohub,2013-02-15 20:41:00,
2013-02-15 12:46:00,69.6,19.9,-100.00,ESE,109,12.0,18.0,15,0.00,,,0.00,meteohub,2013-02-15 20:46:00,
2013-02-15 12:51:00,69.4,19.8,-100.00,East,88,14.0,18.0,15,0.00,,,0.00,meteohub,2013-02-15 20:51:00,
2013-02-15 12:56:00,69.1,18.0,-100.00,East,88,7.0,19.0,14,0.00,,,0.00,meteohub,2013-02-15 20:56:00,
2013-02-15 13:01:00,69.6,18.3,-100.00,East,90,8.0,19.0,14,0.00,,,0.00,meteohub,2013-02-15 21:01:00,
2013-02-15 13:06:00,70.2,20.3,-100.00,ESE,109,12.0,19.0,15,0.00,,,0.00,meteohub,2013-02-15 21:06:00,
2013-02-15 13:11:00,70.0,18.5,-100.00,East,101,8.0,17.0,14,0.00,,,0.00,meteohub,2013-02-15 21:11:00,
2013-02-15 13:16:00,70.0,18.5,-100.00,East,86,11.0,16.0,14,0.00,,,0.00,meteohub,2013-02-15 21:16:00,
2013-02-15 13:21:00,70.0,18.5,-100.00,East,89,13.0,16.0,14,0.00,,,0.00,meteohub,2013-02-15 21:21:00,
2013-02-15 13:26:00,70.3,18.9,-100.00,ENE,71,11.0,19.0,14,0.00,,,0.00,meteohub,2013-02-15 21:26:00,
2013-02-15 13:31:00,70.3,18.9,-100.00,East,88,11.0,23.0,14,0.00,,,0.00,meteohub,2013-02-15 21:31:00,
2013-02-15 13:36:00,70.3,18.9,-100.00,East,84,8.0,23.0,14,0.00,,,0.00,meteohub,2013-02-15 21:36:00,
2013-02-15 13:41:00,70.2,18.7,-100.00,ESE,117,12.0,23.0,14,0.00,,,0.00,meteohub,2013-02-15 21:41:00,
2013-02-15 13:46:00,70.3,18.9,-100.00,ESE,110,14.0,18.0,14,0.00,,,0.00,meteohub,2013-02-15 21:46:00,
2013-02-15 13:51:00,70.5,17.2,-100.00,SE,143,10.0,18.0,13,0.00,,,0.00,meteohub,2013-02-15 21:51:00,
2013-02-15 13:56:00,70.9,17.6,-100.00,East,90,7.0,17.0,13,0.00,,,0.00,meteohub,2013-02-15 21:56:00,
2013-02-15 14:01:00,70.7,17.4,-100.00,ESE,114,4.0,16.0,13,0.00,,,0.00,meteohub,2013-02-15 22:01:00,
2013-02-15 14:06:00,70.9,17.6,-100.00,ENE,76,10.0,16.0,13,0.00,,,0.00,meteohub,2013-02-15 22:06:00,
2013-02-15 14:11:00,70.9,17.6,-100.00,East,90,7.0,16.0,13,0.00,,,0.00,meteohub,2013-02-15 22:11:00,
2013-02-15 14:16:00,71.1,15.8,-100.00,ESE,105,8.0,16.0,12,0.00,,,0.00,meteohub,2013-02-15 22:16:00,
2013-02-15 14:21:00,71.2,16.0,-100.00,East,93,9.0,17.0,12,0.00,,,0.00,meteohub,2013-02-15 22:21:00,
2013-02-15 14:26:00,71.2,16.0,-100.00,East,99,9.0,18.0,12,0.00,,,0.00,meteohub,2013-02-15 22:26:00,
2013-02-15 14:31:00,71.2,16.0,-100.00,ESE,113,12.0,18.0,12,0.00,,,0.00,meteohub,2013-02-15 22:31:00,
2013-02-15 14:36:00,71.2,16.0,-100.00,East,88,17.0,23.0,12,0.00,,,0.00,meteohub,2013-02-15 22:36:00,
2013-02-15 14:41:00,71.4,16.2,-100.00,ESE,114,11.0,23.0,12,0.00,,,0.00,meteohub,2013-02-15 22:41:00,
2013-02-15 14:46:00,71.4,16.2,-100.00,ESE,109,14.0,22.0,12,0.00,,,0.00,meteohub,2013-02-15 22:46:00,
2013-02-15 14:51:00,71.4,16.2,-100.00,ESE,112,12.0,22.0,12,0.00,,,0.00,meteohub,2013-02-15 22:51:00,
2013-02-15 14:56:00,71.1,15.8,-100.00,East,83,16.0,21.0,12,0.00,,,0.00,meteohub,2013-02-15 22:56:00,
2013-02-15 15:01:00,71.1,15.8,-100.00,East,98,16.0,21.0,12,0.00,,,0.00,meteohub,2013-02-15 23:01:00,
2013-02-15 15:06:00,71.2,16.0,-100.00,East,94,9.0,19.0,12,0.00,,,0.00,meteohub,2013-02-15 23:06:00,
2013-02-15 15:11:00,71.4,16.2,-100.00,East,88,9.0,18.0,12,0.00,,,0.00,meteohub,2013-02-15 23:11:00,
2013-02-15 15:16:00,71.4,16.2,-100.00,East,82,8.0,18.0,12,0.00,,,0.00,meteohub,2013-02-15 23:16:00,
2013-02-15 15:21:00,71.4,16.2,-100.00,ENE,69,12.0,17.0,12,0.00,,,0.00,meteohub,2013-02-15 23:21:00,
2013-02-15 15:26:00,71.4,14.2,-100.00,East,90,13.0,17.0,11,0.00,,,0.00,meteohub,2013-02-15 23:26:00,
2013-02-15 15:31:00,71.6,16.3,-100.00,SE,132,11.0,21.0,12,0.00,,,0.00,meteohub,2013-02-15 23:31:00,
2013-02-15 15:36:00,71.6,14.4,-100.00,ESE,116,12.0,21.0,11,0.00,,,0.00,meteohub,2013-02-15 23:36:00,
2013-02-15 15:41:00,71.4,14.2,-100.00,ESE,112,11.0,19.0,11,0.00,,,0.00,meteohub,2013-02-15 23:41:00,
2013-02-15 15:46:00,71.2,14.0,-100.00,ESE,107,13.0,19.0,11,0.00,,,0.00,meteohub,2013-02-15 23:46:00,
2013-02-15 15:51:00,71.2,16.0,-100.00,ESE,102,14.0,19.0,12,0.00,,,0.00,meteohub,2013-02-15 23:51:00,
2013-02-15 15:56:00,71.2,14.0,-100.00,ESE,114,14.0,17.0,11,0.00,,,0.00,meteohub,2013-02-15 23:56:00,
2013-02-15 16:01:00,71.1,13.8,-100.00,ESE,117,10.0,17.0,11,0.00,,,0.00,meteohub,2013-02-16 00:01:00,
2013-02-15 16:06:00,71.1,13.8,-100.00,East,101,14.0,17.0,11,0.00,,,0.00,meteohub,2013-02-16 00:06:00,
2013-02-15 16:11:00,70.9,13.8,-100.00,ESE,104,11.0,17.0,11,0.00,,,0.00,meteohub,2013-02-16 00:11:00,
2013-02-15 16:16:00,70.7,15.6,-100.00,SE,126,7.0,18.0,12,0.00,,,0.00,meteohub,2013-02-16 00:16:00,
2013-02-15 16:21:00,70.7,13.6,-100.00,East,99,9.0,18.0,11,0.00,,,0.00,meteohub,2013-02-16 00:21:00,
2013-02-15 16:26:00,70.5,13.5,-100.00,ESE,112,9.0,16.0,11,0.00,,,0.00,meteohub,2013-02-16 00:26:00,
2013-02-15 16:31:00,70.3,13.3,-100.00,ESE,115,12.0,17.0,11,0.00,,,0.00,meteohub,2013-02-16 00:31:00,
2013-02-15 16:36:00,70.2,15.1,-100.00,SE,125,11.0,17.0,12,0.00,,,0.00,meteohub,2013-02-16 00:36:00,
2013-02-15 16:41:00,70.0,13.1,-100.00,ESE,113,10.0,17.0,11,0.00,,,0.00,meteohub,2013-02-16 00:41:00,
2013-02-15 16:47:00,70.0,13.1,-100.00,ESE,111,8.0,16.0,11,0.00,,,0.00,meteohub,2013-02-16 00:47:00,
2013-02-15 16:52:00,69.6,12.7,-100.00,ESE,103,7.0,16.0,11,0.00,,,0.00,meteohub,2013-02-16 00:52:00,
2013-02-15 16:57:00,69.4,14.5,-100.00,ESE,117,10.0,15.0,12,0.00,,,0.00,meteohub,2013-02-16 00:57:00,
2013-02-15 17:02:00,68.7,14.0,-100.00,ESE,107,10.0,15.0,12,0.00,,,0.00,meteohub,2013-02-16 01:02:00,
2013-02-15 17:07:00,68.5,13.8,-100.00,ESE,108,8.0,14.0,12,0.00,,,0.00,meteohub,2013-02-16 01:07:00,
2013-02-15 17:12:00,68.4,13.8,-100.00,ESE,106,8.0,14.0,12,0.00,,,0.00,meteohub,2013-02-16 01:12:00,
2013-02-15 17:17:00,68.0,13.5,-100.00,ESE,108,7.0,14.0,12,0.00,,,0.00,meteohub,2013-02-16 01:17:00,
2013-02-15 17:22:00,67.6,13.3,-100.00,ESE,111,10.0,14.0,12,0.00,,,0.00,meteohub,2013-02-16 01:22:00,
2013-02-15 17:27:00,67.5,13.1,-100.00,ESE,117,4.0,14.0,12,0.00,,,0.00,meteohub,2013-02-16 01:27:00,
2013-02-15 17:32:00,66.9,12.6,-100.00,ESE,105,7.0,12.0,12,0.00,,,0.00,meteohub,2013-02-16 01:32:00,
2013-02-15 17:37:00,66.6,12.4,-100.00,SE,125,7.0,12.0,12,0.00,,,0.00,meteohub,2013-02-16 01:37:00,
2013-02-15 17:42:00,66.2,13.8,-100.00,ESE,111,7.0,11.0,13,0.00,,,0.00,meteohub,2013-02-16 01:42:00,
2013-02-15 17:47:00,65.8,13.6,-100.00,ESE,123,4.0,11.0,13,0.00,,,0.00,meteohub,2013-02-16 01:47:00,
2013-02-15 17:52:00,65.7,13.5,-100.00,ESE,121,8.0,11.0,13,0.00,,,0.00,meteohub,2013-02-16 01:52:00,
2013-02-15 17:57:00,65.3,13.1,-100.00,SE,128,6.0,11.0,13,0.00,,,0.00,meteohub,2013-02-16 01:57:00,
2013-02-15 18:02:00,64.9,12.9,-100.00,SE,138,6.0,11.0,13,0.00,,,0.00,meteohub,2013-02-16 02:02:00,
2013-02-15 18:07:00,64.8,12.7,-100.00,SE,143,5.0,10.0,13,0.00,,,0.00,meteohub,2013-02-16 02:07:00,
2013-02-15 18:12:00,64.4,14.2,-100.00,SE,140,7.0,9.0,14,0.00,,,0.00,meteohub,2013-02-16 02:12:00,
2013-02-15 18:17:00,64.0,13.8,-100.00,SSE,151,5.0,9.0,14,0.00,,,0.00,meteohub,2013-02-16 02:17:00,
2013-02-15 18:22:00,63.7,13.6,-100.00,SSE,150,5.0,9.0,14,0.00,,,0.00,meteohub,2013-02-16 02:22:00,
2013-02-15 18:27:00,63.3,14.9,-100.00,SSE,154,5.0,9.0,15,0.00,,,0.00,meteohub,2013-02-16 02:27:00,
2013-02-15 18:32:00,63.1,14.7,-100.00,SSE,148,4.0,7.0,15,0.00,,,0.00,meteohub,2013-02-16 02:32:00,
2013-02-15 18:37:00,63.0,14.5,-100.00,SE,142,4.0,7.0,15,0.00,,,0.00,meteohub,2013-02-16 02:37:00,
2013-02-15 18:42:00,62.6,14.4,-100.00,SE,134,5.0,9.0,15,0.00,,,0.00,meteohub,2013-02-16 02:42:00,
2013-02-15 18:47:00,62.2,14.0,-100.00,SE,134,5.0,9.0,15,0.00,,,0.00,meteohub,2013-02-16 02:47:00,
2013-02-15 18:52:00,62.1,13.8,-100.00,SE,131,5.0,9.0,15,0.00,,,0.00,meteohub,2013-02-16 02:52:00,
2013-02-15 18:57:00,61.7,15.1,-100.00,SE,130,5.0,9.0,16,0.00,,,0.00,meteohub,2013-02-16 02:57:00,
2013-02-15 19:02:00,61.3,14.7,-100.00,SE,130,6.0,9.0,16,0.00,,,0.00,meteohub,2013-02-16 03:02:00,
2013-02-15 19:07:00,61.0,15.8,-100.00,SE,130,5.0,9.0,17,0.00,,,0.00,meteohub,2013-02-16 03:07:00,
2013-02-15 19:12:00,60.6,15.6,-100.00,SE,133,9.0,9.0,17,0.00,,,0.00,meteohub,2013-02-16 03:12:00,
2013-02-15 19:17:00,60.6,15.6,-100.00,SE,130,5.0,10.0,17,0.00,,,0.00,meteohub,2013-02-16 03:17:00,
2013-02-15 19:22:00,60.4,15.4,-100.00,SE,127,2.0,10.0,17,0.00,,,0.00,meteohub,2013-02-16 03:22:00,
2013-02-15 19:27:00,60.3,15.3,-100.00,ESE,123,5.0,10.0,17,0.00,,,0.00,meteohub,2013-02-16 03:27:00,
2013-02-15 19:32:00,60.1,15.1,-100.00,ESE,121,2.0,8.0,17,0.00,,,0.00,meteohub,2013-02-16 03:32:00,
2013-02-15 19:37:00,59.7,14.9,-100.00,ESE,121,0.0,7.0,17,0.00,,,0.00,meteohub,2013-02-16 03:37:00,
2013-02-15 19:42:00,59.5,14.7,-100.00,ESE,102,2.0,7.0,17,0.00,,,0.00,meteohub,2013-02-16 03:42:00,
2013-02-15 19:47:00,59.2,14.4,-100.00,East,99,1.0,4.0,17,0.00,,,0.00,meteohub,2013-02-16 03:47:00,
2013-02-15 19:52:00,58.6,15.3,-100.00,ENE,70,4.0,4.0,18,0.00,,,0.00,meteohub,2013-02-16 03:52:00,
2013-02-15 19:57:00,58.5,15.1,-100.00,NNE,19,3.0,5.0,18,0.00,,,0.00,meteohub,2013-02-16 03:57:00,
2013-02-15 20:02:00,58.3,14.9,-100.00,NNE,19,1.0,5.0,18,0.00,,,0.00,meteohub,2013-02-16 04:02:00,
2013-02-15 20:07:00,58.3,14.9,-100.00,NNE,19,0.0,5.0,18,0.00,,,0.00,meteohub,2013-02-16 04:07:00,
2013-02-15 20:12:00,58.1,14.7,-100.00,NNE,19,0.0,4.0,18,0.00,,,0.00,meteohub,2013-02-16 04:12:00,
2013-02-15 20:17:00,57.9,14.7,-100.00,NNE,19,0.0,2.0,18,0.00,,,0.00,meteohub,2013-02-16 04:17:00,
2013-02-15 20:22:00,57.7,14.5,-100.00,NNE,19,0.0,2.0,18,0.00,,,0.00,meteohub,2013-02-16 04:22:00,
2013-02-15 20:27:00,57.0,15.1,-100.00,North,355,4.0,4.0,19,0.00,,,0.00,meteohub,2013-02-16 04:27:00,
2013-02-15 20:32:00,56.5,14.7,-100.00,WNW,293,3.0,5.0,19,0.00,,,0.00,meteohub,2013-02-16 04:32:00,
2013-02-15 20:37:00,56.3,14.5,-100.00,WNW,293,2.0,5.0,19,0.00,,,0.00,meteohub,2013-02-16 04:37:00,
2013-02-15 20:42:00,56.3,14.5,-100.00,WNW,293,2.0,5.0,19,0.00,,,0.00,meteohub,2013-02-16 04:42:00,
2013-02-15 20:47:00,56.3,14.5,-100.00,WNW,293,1.0,5.0,19,0.00,,,0.00,meteohub,2013-02-16 04:47:00,
2013-02-15 20:52:00,56.1,14.4,-100.00,WNW,293,2.0,3.0,19,0.00,,,0.00,meteohub,2013-02-16 04:52:00,
2013-02-15 20:57:00,55.9,15.4,-100.00,West,269,3.0,4.0,20,0.00,,,0.00,meteohub,2013-02-16 04:57:00,
2013-02-15 21:00:00,55.8,16.3,-100.00,West,260,2.0,4.0,21,0.00,,,0.00,meteohub,2013-02-16 05:00:00,
2013-02-15 21:05:00,55.4,16.2,-100.00,SW,230,2.0,5.0,21,0.00,,,0.00,meteohub,2013-02-16 05:05:00,
2013-02-15 21:10:00,54.5,15.3,-100.00,NW,311,3.0,5.0,21,0.00,,,0.00,meteohub,2013-02-16 05:10:00,
2013-02-15 21:15:00,54.1,15.1,-100.00,NW,311,2.0,7.0,21,0.00,,,0.00,meteohub,2013-02-16 05:15:00,
2013-02-15 21:20:00,54.0,14.9,-100.00,NW,311,0.0,7.0,21,0.00,,,0.00,meteohub,2013-02-16 05:20:00,
2013-02-15 21:23:00,54.0,14.9,-100.00,NW,311,1.0,7.0,21,0.00,,,0.00,meteohub,2013-02-16 05:23:00,
2013-02-15 21:28:00,54.1,15.1,-100.00,NW,311,3.0,4.0,21,0.00,,,0.00,meteohub,2013-02-16 05:28:00,
2013-02-15 21:33:00,54.0,14.9,-100.00,NW,309,2.0,3.0,21,0.00,,,0.00,meteohub,2013-02-16 05:33:00,
2013-02-15 21:38:00,53.8,15.8,-100.00,NW,305,3.0,4.0,22,0.00,,,0.00,meteohub,2013-02-16 05:38:00,
2013-02-15 21:43:00,53.4,15.4,-100.00,NW,305,0.0,4.0,22,0.00,,,0.00,meteohub,2013-02-16 05:43:00,
2013-02-15 21:48:00,53.2,14.4,-100.00,NW,305,0.0,4.0,21,0.00,,,0.00,meteohub,2013-02-16 05:48:00,
2013-02-15 21:53:00,53.2,14.4,-100.00,NW,305,0.0,4.0,21,0.00,,,0.00,meteohub,2013-02-16 05:53:00,
2013-02-15 21:58:00,52.9,15.1,-100.00,WNW,283,5.0,5.0,22,0.00,,,0.00,meteohub,2013-02-16 05:58:00,
2013-02-15 22:03:00,52.3,14.5,-100.00,West,281,3.0,4.0,22,0.00,,,0.00,meteohub,2013-02-16 06:03:00,
2013-02-15 22:08:00,51.6,14.0,-100.00,WNW,282,3.0,6.0,22,0.00,,,0.00,meteohub,2013-02-16 06:08:00,
2013-02-15 22:13:00,51.6,14.0,-100.00,WNW,282,2.0,6.0,22,0.00,,,0.00,meteohub,2013-02-16 06:13:00,
2013-02-15 22:18:00,51.4,14.9,-100.00,WNW,282,2.0,5.0,23,0.00,,,0.00,meteohub,2013-02-16 06:18:00,
2013-02-15 22:23:00,50.9,14.4,-100.00,West,280,5.0,5.0,23,0.00,,,0.00,meteohub,2013-02-16 06:23:00,
2013-02-15 22:28:00,50.7,14.2,-100.00,WSW,254,6.0,6.0,23,0.00,,,0.00,meteohub,2013-02-16 06:28:00,
2013-02-15 22:33:00,50.5,14.2,-100.00,WSW,252,7.0,7.0,23,0.00,,,0.00,meteohub,2013-02-16 06:33:00,
2013-02-15 22:38:00,50.4,14.0,-100.00,WSW,252,4.0,7.0,23,0.00,,,0.00,meteohub,2013-02-16 06:38:00,
2013-02-15 22:43:00,50.2,13.8,-100.00,WSW,252,2.0,8.0,23,0.00,,,0.00,meteohub,2013-02-16 06:43:00,
2013-02-15 22:48:00,50.2,14.7,-100.00,SW,234,4.0,8.0,24,0.00,,,0.00,meteohub,2013-02-16 06:48:00,
2013-02-15 22:53:00,49.8,15.4,-100.00,SW,221,2.0,7.0,25,0.00,,,0.00,meteohub,2013-02-16 06:53:00,
2013-02-15 22:58:00,49.6,15.3,-100.00,SW,221,5.0,6.0,25,0.00,,,0.00,meteohub,2013-02-16 06:58:00,
2013-02-15 23:03:00,49.6,15.3,-100.00,SW,221,1.0,6.0,25,0.00,,,0.00,meteohub,2013-02-16 07:03:00,
2013-02-15 23:08:00,49.5,15.1,-100.00,SW,221,3.0,5.0,25,0.00,,,0.00,meteohub,2013-02-16 07:08:00,
2013-02-15 23:13:00,49.5,15.1,-100.00,SW,221,1.0,5.0,25,0.00,,,0.00,meteohub,2013-02-16 07:13:00,
2013-02-15 23:18:00,49.5,15.1,-100.00,SW,221,3.0,5.0,25,0.00,,,0.00,meteohub,2013-02-16 07:18:00,
2013-02-15 23:23:00,49.3,14.9,-100.00,SW,221,2.0,5.0,25,0.00,,,0.00,meteohub,2013-02-16 07:23:00,
2013-02-15 23:28:00,49.3,15.8,-100.00,SW,221,1.0,4.0,26,0.00,,,0.00,meteohub,2013-02-16 07:28:00,
2013-02-15 23:33:00,49.3,15.8,-100.00,SW,221,1.0,3.0,26,0.00,,,0.00,meteohub,2013-02-16 07:33:00,
2013-02-15 23:38:00,49.3,14.9,-100.00,SW,221,0.0,4.0,25,0.00,,,0.00,meteohub,2013-02-16 07:38:00,
2013-02-15 23:43:00,48.9,14.5,-100.00,SW,221,0.0,4.0,25,0.00,,,0.00,meteohub,2013-02-16 07:43:00,
2013-02-15 23:48:00,48.9,15.4,-100.00,SW,221,0.0,4.0,26,0.00,,,0.00,meteohub,2013-02-16 07:48:00,
2013-02-15 23:53:00,48.6,15.3,-100.00,SW,221,0.0,2.0,26,0.00,,,0.00,meteohub,2013-02-16 07:53:00,
2013-02-15 23:58:00,48.2,14.9,-100.00,SW,221,0.0,2.0,26,0.00,,,0.00,meteohub,2013-02-16 07:58:00,